Location: Grange Verzio
(44.5000°N, 6.9833°E)
Time: 18:01:29
(UTC+00:00)

Cosmos 1703 - Pass Details

Date: 01 February 2023
Orbit: 511 x 524 km, 82.5° (Epoch: 29 March)

Event Time Altitude Azimuth Distance (km) Brightness Sun altitude
Rises 17:16:45 0° 198° (SSW) 2,609 7.3 -6.9°
Reaches altitude 10° 17:18:54 10° 203° (SSW) 1,728 6.5 -7.2°
Maximum altitude 17:22:36 53° 281° (W) 638 4.1 -7.9°
Drops below altitude 10° 17:26:21 10° 359° (N) 1,745 5.7 -8.5°
Sets 17:28:32 0° 5° (N) 2,639 6.6 -8.9°
